Regional Weather Roundup
Issued by NWS

Home | Current Version | Previous Version | Text Only | Print | Product List | Glossary Off
Versions: 1 2 3 4 5 6 7 8 9 10 11 12 13 14 15 16 17 18 19 20 21 22 23 24 25 26 27 28 29 30 31 32 33 34 35 36 37 38 39 40 41 42 43 44 45 46 47 48 49 50

000
ASUS43 KLMK 010702
RWRKY
KENTUCKY REGIONAL WEATHER ROUNDUP
NATIONAL WEATHER SERVICE LOUISVILLE KY
300 AM EDT TUE SEP 01 2015

NOTE "FAIR" INDICATES FEW OR NO CLOUDS BELOW 12,000 FEET
WITH NO SIGNIFICANT WEATHER AND/OR OBSTRUCTIONS TO VISIBILITY.

KYZ001>023-026-027-061>063-070>075-010800-
WESTERN AND SOUTH CENTRAL KENTUCKY

CITY           SKY/WX    TMP DP  RH WIND       PRES   REMARKS
PADUCAH        CLEAR     71  65  81 CALM      30.08S
HENDERSON      CLEAR     66  63  88 CALM      30.08F
OWENSBORO      CLOUDY    70  68  93 CALM      30.10F
HOPKINSVILLE   CLEAR     67  66  94 CALM      30.10S
BOWLING GREEN  CLEAR     67  65  93 CALM      30.11S FOG
GLASGOW        NOT AVBL
$$

KYZ024-025-028>034-038-045-046-053-010800-
NORTH CENTRAL KENTUCKY

CITY           SKY/WX    TMP DP  RH WIND       PRES   REMARKS
LOUISVILLE/SDF CLEAR     73  67  81 CALM      30.10F
LOUISVILLE/LOU CLEAR     71  66  84 CALM      30.11F
FORT KNOX      CLEAR     65  63  95 CALM      30.10F
$$

KYZ035>037-039>044-047>052-055>060-089>105-010800-
NORTHEAST KENTUCKY

CITY           SKY/WX    TMP DP  RH WIND       PRES   REMARKS
LEXINGTON      CLEAR     67  64  90 S3        30.13F
COVINGTON      CLEAR     68  65  90 CALM      30.11F
FRANKFORT      CLEAR     66  63  90 CALM      30.11F
$$

KYZ054-064>069-076>088-106>120-010800-
SOUTHEAST KENTUCKY

CITY           SKY/WX    TMP DP  RH WIND       PRES   REMARKS
JACKSON        MOCLDY    69  65  86 CALM      30.14F
LONDON         CLEAR     67  62  84 CALM      30.14F
SOMERSET       NOT AVBL
MIDDLESBORO    NOT AVBL
MONTICELLO     FOG       63  63 100 CALM      30.16S VSB 1/4
$$




USA.gov is the U.S. government's official web portal to all federal, state and local government web resources and services.